Location: Peebles
(55.6412°N, 3.1714°W)
Time: 08:35:29
(UTC+01:00)

Spot 2 Rocket - Pass Details

Date: 26 September 2021
Orbit: 758 x 771 km, 98.5° (Epoch: 21 October)

Event Time Altitude Azimuth Distance (km) Brightness Sun altitude
Exits shadow 22:19:51 87° 357° (N) 768 3.4 -26.7°
Drops below altitude 10° 22:24:51 10° 344° (NNW) 2,305 6.7 -27.2°
Sets 22:27:10 0° 344° (NNW) 3,236 7.6 -27.4°
